Regional Weather Roundup
Issued by NWS

Home | Current Version | Previous Version | Text Only | Print | Product List | Glossary On
Versions: 1 2 3 4 5 6 7 8 9 10 11 12 13 14 15 16 17 18 19 20 21 22 23 24 25 26 27 28 29 30 31 32 33 34 35 36 37 38 39 40 41 42 43 44 45 46 47 48 49 50
000
ASUS45 KSLC 061110
RWRUT

UTAH REGIONAL WEATHER ROUNDUP
NATIONAL WEATHER SERVICE SALT LAKE CITY UT
400 AM MST FRI MAR 06 2015

UTZ001>011-023>025-061200-

NORTHERN UTAH

CITY           SKY/WX    TMP DP  RH WIND       PRES   REMARKS
BRIGHAM CITY   CLEAR     28  23  82 CALM      30.43S
HILL AFB       PTCLDY    31  16  54 E15       30.41S WCI  20
LOGAN          CLEAR     25  19  78 CALM      30.42F
OGDEN          CLEAR     30  19  63 S10       30.41S WCI  21
PROVO AIRPORT  CLEAR     28  19  69 S5        30.44S WCI  23
SALT LAKE CITY CLEAR     32  23  69 SE7       30.41F WCI  26
VERNAL         CLEAR     22  14  71 W5        30.41S WCI  16
WENDOVER       CLEAR     30  18  59 CALM      30.40F
HEBER CITY     CLEAR     19  16  86 CALM      30.45S
WEST JORDAN    CLEAR     30  23  74 S6        30.41F WCI  24

$$

UTZ012>022-026-027-061200-

SOUTHERN/CENTRAL UTAH

CITY           SKY/WX    TMP DP  RH WIND       PRES   REMARKS
BLANDING       CLEAR     29  22  75 NE8       30.43S WCI  21
BRYCE CANYON   PTCLDY     4  -1  80 W14       30.39F WCI -14
CEDAR CITY     PTCLDY    18  11  74 CALM      30.36F
DELTA          CLEAR     27  22  83 E5        30.41S WCI  21
HANKSVILLE     CLEAR     28  25  86 CALM      30.42S
MILFORD        CLEAR     25  19  78 S6        30.40S WCI  18
MOAB/CYNLANDS  CLEAR     25  18  74 CALM      30.38F
PRICE          CLEAR     24  15  68 N6        30.38F WCI  17
ST GEORGE      SUNNY     37  27  65 SE3       30.37S
KANAB          CLEAR     30  19  64 NW16      30.38F WCI  19

$$

REGIONAL REPORTS     COLORADO/ARIZONA

CITY           SKY/WX    TMP DP  RH WIND       PRES   REMARKS
CRAIG, CO      PTCLDY    11   7  84 CALM      30.41S
GRAND JUNCTION CLEAR     24  18  77 CALM      30.42S
RIFLE          CLEAR     22  16  78 CALM      30.45R
MONTROSE       CLEAR     24  14  65 SE9       30.43F WCI  14
CORTEZ         CLEAR     20  16  84 CALM      30.37F
PAGE, AZ       CLEAR     34  25  69 CALM      30.36F
GRAND CANYON     N/A    N/A N/A N/A MISG      30.34F
KINGMAN        CLEAR     43  24  47 NE5       30.28F
FLAGSTAFF      CLEAR     27   8  44 E8        30.32F WCI  19

$$

REGIONAL REPORTS    NEVADA/IDAHO/WYOMING

CITY           SKY/WX    TMP DP  RH WIND       PRES   REMARKS
LAS VEGAS, NV  CLEAR     46  31  55 S10       30.25F
ELY            CLEAR     20  16  84 S12       30.40F WCI   8
ELKO           CLEAR     21  12  68 E5        30.42S WCI  15
POCATELLO, ID  CLEAR     31  21  66 SW6       30.38S WCI  25
BURLEY         CLEAR     25  15  66 CALM      30.36S
EVANSTON, WY   PTCLDY    21  12  68 SW10      30.38F WCI  10
ROCK SPRINGS   PTCLDY    25  11  55 SW9       30.34S WCI  15

$$


USA.gov is the U.S. government's official web portal to all federal, state and local government web resources and services.